Weather History for Faribault, MN

Change the Weather History Date:

Saturday, June 22, 2013

  Actual Average Record
Temperature  
Mean Temperature 72 °F -  
Max Temperature 82 °F 80 °F 102 °F (1988)
Min Temperature 62 °F 56 °F 43 °F (1972)
Cooling Degree Days 7    
Growing Degree Days 22 (Base 50)    
Moisture  
Dew Point 69 °F    
Average Humidity 91    
Maximum Humidity 100    
Minimum Humidity 73    
Precipitation  
Precipitation 2.15 in - - ()
Sea Level Pressure  
Sea Level Pressure 29.91 in    
Wind  
Wind Speed 8 mph (NE)    
Max Wind Speed 17 mph    
Max Gust Speed 28 mph    
Visibility 10 miles    
Events Rain , Thunderstorm    
Averages and records for this station are not official NWS values.
T = Trace of Precipitation, MM = Missing Value Source: NWS Daily Summary

Daily Weather History Graph

Daily Weather History Graph

Search for Another Location

Airport:

Trip Planner

Search our weather history database for the weather conditions in past years. The results will help you decide how hot, cold, wet, or windy it might be!

Date:

Astronomy

Jun. 22, 2013 Rise Set
Actual Time 5:29 AM CDT 9:01 PM CDT
Civil Twilight 4:52 AM CDT 9:37 PM CDT
Nautical Twilight 4:04 AM CDT 10:26 PM CDT
Astronomical Twilight 3:01 AM CDT 11:28 PM CDT
Moon 8:14 PM CDT (6/22) 4:45 AM CDT (6/22)
Length of Visible Light 16h 45m
Length of Day
15h 31m
Waxing Gibbous, 99% of the Moon is Illuminated
Jun 22
Waxing Gibbous
Jun 23
Full
Jun 29
Last Quarter
Jul 8
New
Jul 15
First Quarter

Hourly Weather History & Observations

Time (CDT) Temp. Heat Index Dew Point Humidity Pressure Visibility Wind Dir Wind Speed Gust Speed Precip Events Conditions
12:14 AM 69.8 °F - 62.6 °F 78% 29.88 in 10.0 mi ESE 17.3 mph 23.0 mph N/A   Clear
12:34 AM 69.8 °F - 62.6 °F 78% 29.92 in 10.0 mi NW 12.7 mph 21.9 mph N/A Thunderstorm Scattered Clouds
12:54 AM 71.6 °F - 62.6 °F 73% 29.92 in 10.0 mi NNW 4.6 mph 23.0 mph N/A Thunderstorm Overcast
1:14 AM 64.4 °F - 64.4 °F 100% 29.96 in 3.0 mi West 16.1 mph 27.6 mph 0.42 in Rain , Thunderstorm Heavy Thunderstorms and Rain
1:34 AM 62.6 °F - 62.6 °F 100% 30.00 in 3.0 mi West 10.4 mph - 1.12 in Rain , Thunderstorm Heavy Thunderstorms and Rain
1:54 AM 62.6 °F - 62.6 °F 100% 29.98 in 7.0 mi NW 6.9 mph - 1.43 in Rain , Thunderstorm Rain
2:14 AM 62.6 °F - 62.6 °F 100% 29.99 in 7.0 mi WNW 6.9 mph - 0.04 in Rain , Thunderstorm Thunderstorms and Rain
2:34 AM 62.6 °F - 62.6 °F 100% 29.99 in 7.0 mi West 11.5 mph - 0.08 in Rain , Thunderstorm Thunderstorms and Rain
2:54 AM 64.4 °F - 64.4 °F 100% 29.97 in 10.0 mi NW 6.9 mph - 0.13 in Rain , Thunderstorm Thunderstorms and Rain
3:14 AM 64.4 °F - 64.4 °F 100% 29.97 in 10.0 mi NW 8.1 mph - 0.06 in Rain , Thunderstorm Rain
3:34 AM 62.6 °F - 62.6 °F 100% 29.93 in 10.0 mi North 10.4 mph - 0.10 in Rain , Thunderstorm Light Thunderstorms and Rain
3:54 AM 64.4 °F - 64.4 °F 100% 29.94 in 10.0 mi NNW 6.9 mph - 0.14 in Rain Rain
4:14 AM 64.4 °F - 64.4 °F 100% 29.96 in 10.0 mi North 6.9 mph - 0.05 in Rain , Thunderstorm Thunderstorms and Rain
4:34 AM 64.4 °F - 64.4 °F 100% 29.95 in 10.0 mi NW 8.1 mph - 0.09 in Rain Rain
4:54 AM 64.4 °F - 64.4 °F 100% 29.93 in 10.0 mi NNW 12.7 mph - 0.11 in Rain Light Rain
5:14 AM 64.4 °F - 64.4 °F 100% 30.05 in 10.0 mi SSW 6.9 mph - 0.03 in Rain , Thunderstorm Rain
5:34 AM 64.4 °F - 64.4 °F 100% 30.05 in 10.0 mi SSE 6.9 mph - 0.14 in Rain Heavy Rain
5:54 AM 64.4 °F - 64.4 °F 100% 30.00 in 10.0 mi ENE 5.8 mph - 0.18 in Rain Light Rain
6:14 AM 64.4 °F - 64.4 °F 100% 29.89 in 7.0 mi East 17.3 mph - 0.01 in Rain Rain
6:34 AM 64.4 °F - 64.4 °F 100% 29.88 in 10.0 mi NE 4.6 mph - 0.01 in   Clear
6:54 AM 64.4 °F - 64.4 °F 100% 29.89 in 10.0 mi Calm Calm - 0.01 in   Clear
7:14 AM 64.4 °F - 64.4 °F 100% 29.91 in 10.0 mi Calm Calm - N/A   Scattered Clouds
7:34 AM 64.4 °F - 64.4 °F 100% 29.90 in 10.0 mi Calm Calm - N/A   Clear
7:54 AM 64.4 °F - 64.4 °F 100% 29.89 in 7.0 mi ESE 5.8 mph - N/A   Clear
8:14 AM 64.4 °F - 64.4 °F 100% 29.91 in 10.0 mi ESE 8.1 mph - N/A   Clear
8:34 AM 64.4 °F - 64.4 °F 100% 29.94 in 10.0 mi SE 6.9 mph - N/A   Clear
8:54 AM 66.2 °F - 66.2 °F 100% 29.95 in 10.0 mi South 4.6 mph - N/A   Scattered Clouds
9:14 AM 66.2 °F - 66.2 °F 100% 29.96 in 10.0 mi South 5.8 mph - N/A   Scattered Clouds
9:34 AM 66.2 °F - 66.2 °F 100% 29.94 in 10.0 mi SE 11.5 mph 18.4 mph N/A   Scattered Clouds
9:54 AM 68.0 °F - 68.0 °F 100% 29.93 in 10.0 mi SSE 12.7 mph - N/A   Clear
10:14 AM 69.8 °F - 69.8 °F 100% 29.94 in 10.0 mi South 10.4 mph 17.3 mph N/A   Clear
10:34 AM 71.6 °F - 68.0 °F 88% 29.93 in 10.0 mi SSE 11.5 mph - N/A   Clear
10:54 AM 71.6 °F - 69.8 °F 94% 29.93 in 10.0 mi South 6.9 mph - N/A   Clear
11:14 AM 73.4 °F - 69.8 °F 88% 29.95 in 10.0 mi SSE 8.1 mph - N/A   Clear
11:34 AM 75.2 °F - 69.8 °F 83% 29.94 in 10.0 mi South 10.4 mph - N/A   Scattered Clouds
11:54 AM 75.2 °F - 69.8 °F 83% 29.93 in 10.0 mi SSW 4.6 mph - N/A   Mostly Cloudy
12:14 PM 75.2 °F - 69.8 °F 83% 29.93 in 10.0 mi South 6.9 mph - N/A   Scattered Clouds
12:34 PM 75.2 °F - 69.8 °F 83% 29.90 in 10.0 mi SSE 5.8 mph - N/A   Clear
12:54 PM 77.0 °F - 71.6 °F 83% 29.91 in 10.0 mi West 3.5 mph - N/A   Clear
1:14 PM 77.0 °F - 71.6 °F 83% 29.92 in 10.0 mi Calm Calm - N/A   Scattered Clouds
1:34 PM 78.8 °F - 71.6 °F 78% 29.91 in 10.0 mi West 3.5 mph - N/A   Scattered Clouds
1:54 PM 78.8 °F - 71.6 °F 78% 29.91 in 10.0 mi Calm Calm - N/A   Clear
2:14 PM 80.6 °F 85.4 °F 73.4 °F 79% 29.89 in 10.0 mi NNE 3.5 mph - N/A   Clear
2:34 PM 80.6 °F 85.4 °F 73.4 °F 79% 29.90 in 10.0 mi Calm Calm - N/A   Clear
2:54 PM 80.6 °F 85.4 °F 73.4 °F 79% 29.91 in 10.0 mi Calm Calm - N/A   Scattered Clouds
3:14 PM 82.4 °F 88.2 °F 73.4 °F 74% 29.91 in 10.0 mi SW 3.5 mph - N/A   Scattered Clouds
3:34 PM 82.4 °F 88.2 °F 73.4 °F 74% 29.91 in 10.0 mi Calm Calm - N/A   Clear
3:54 PM 82.4 °F 88.2 °F 73.4 °F 74% 29.90 in 10.0 mi NE 3.5 mph - N/A   Clear
4:14 PM 80.6 °F 85.4 °F 73.4 °F 79% 29.90 in 10.0 mi NNE 6.9 mph - N/A   Scattered Clouds
4:34 PM 82.4 °F 89.5 °F 75.2 °F 79% 29.89 in 10.0 mi NNE 4.6 mph - N/A   Mostly Cloudy
4:54 PM 82.4 °F 88.2 °F 73.4 °F 74% 29.88 in 10.0 mi North 6.9 mph - N/A   Scattered Clouds
5:14 PM 80.6 °F 85.4 °F 73.4 °F 79% 29.87 in 10.0 mi North 5.8 mph - N/A Thunderstorm Scattered Clouds
5:34 PM 75.2 °F - 73.4 °F 94% 29.88 in 10.0 mi NNW 6.9 mph - 0.03 in Rain , Thunderstorm Rain
5:54 PM 77.0 °F - 71.6 °F 83% 29.88 in 10.0 mi North 5.8 mph - 0.03 in Thunderstorm Unknown
6:14 PM 77.0 °F - 73.4 °F 89% 29.87 in 10.0 mi North 6.9 mph - N/A   Scattered Clouds
6:34 PM 78.8 °F - 75.2 °F 89% 29.87 in 10.0 mi NE 6.9 mph - N/A   Scattered Clouds
6:54 PM 78.8 °F - 73.4 °F 83% 29.87 in 10.0 mi NNE 8.1 mph - N/A   Clear
7:14 PM 77.0 °F - 73.4 °F 89% 29.88 in 10.0 mi NE 6.9 mph - N/A   Clear
7:34 PM 75.2 °F - 71.6 °F 89% 29.86 in 10.0 mi NE 3.5 mph - N/A   Clear
7:54 PM 75.2 °F - 73.4 °F 94% 29.86 in 10.0 mi NE 8.1 mph - N/A   Clear
8:14 PM 73.4 °F - 71.6 °F 94% 29.85 in 10.0 mi NE 3.5 mph - N/A   Clear
8:34 PM 73.4 °F - 71.6 °F 94% 29.86 in 10.0 mi NE 6.9 mph - N/A   Clear
8:54 PM 73.4 °F - 71.6 °F 94% 29.86 in 10.0 mi NE 4.6 mph - N/A Thunderstorm Clear
9:14 PM 73.4 °F - 71.6 °F 94% 29.85 in 10.0 mi NE 8.1 mph - N/A   Clear
9:34 PM 73.4 °F - 71.6 °F 94% 29.86 in 10.0 mi ENE 5.8 mph - N/A   Clear
9:54 PM 71.6 °F - 69.8 °F 94% 29.88 in 10.0 mi NE 4.6 mph - N/A   Clear
10:14 PM 71.6 °F - 69.8 °F 94% 29.87 in 10.0 mi ENE 5.8 mph - N/A   Scattered Clouds
10:33 PM 71.6 °F - 69.8 °F 94% 29.87 in 10.0 mi ENE 4.6 mph - N/A   Clear
10:54 PM 71.6 °F - 69.8 °F 94% 29.86 in 10.0 mi NE 3.5 mph - N/A   Mostly Cloudy
11:14 PM 71.6 °F - 69.8 °F 94% 29.86 in 10.0 mi East 3.5 mph - N/A   Mostly Cloudy
11:34 PM 71.6 °F - 69.8 °F 94% 29.89 in 10.0 mi South 8.1 mph - N/A Rain Light Rain
11:54 PM 71.6 °F - 71.6 °F 100% 29.86 in 10.0 mi ESE 6.9 mph - 0.12 in Rain Light Rain